Regional Weather Roundup
Issued by NWS Newport/Morehead, NC

Home | Current Version | Previous Version | Text Only | Print | Product List | Glossary On
Versions: 1 2 3 4 5 6 7 8 9 10 11 12 13 14 15 16 17 18 19 20 21 22 23 24 25 26 27 28 29 30 31 32 33 34 35 36 37 38 39 40 41 42 43 44 45 46 47 48 49 50
000
ASUS42 KMHX 010225
RWRMHX
WEATHER ROUNDUP FOR EASTERN NORTH CAROLINA
NATIONAL WEATHER SERVICE NEWPORT/MOREHEAD CITY NC
1000 PM EDT TUE MAY 31 2016

NOTE: "FAIR" INDICATES FEW OR NO CLOUDS BELOW 12,000 FEET
WITH NO SIGNIFICANT WEATHER AND/OR OBSTRUCTIONS TO VISIBILITY

NCZ015>017-031-032-045>047-102-103-010300-
NORTH COAST

CITY           SKY/WX    TMP DP  RH WIND       PRES   REMARKS
EDENTON        PTCLDY    72  72 100 CALM      29.99R
ELIZABETH CITY CLEAR     70  67  90 E6        29.99R
KITTY HAWK     CLEAR     68  66  93 CALM      29.97S
MANTEO         CLEAR     69  69 100 E7        29.98S

$$

NCZ045>047-081-094-103-104-010300-
CENTRAL COAST

CITY           SKY/WX    TMP DP  RH WIND       PRES   REMARKS
FRISCO         RAIN      73  71  93 NE5       29.97R

$$

NCZ095-097-098-100-101-010300-
SOUTHERN COAST

CITY           SKY/WX    TMP DP  RH WIND       PRES   REMARKS
BEAUFORT       CLOUDY    74  73  97 NE6       29.95R
CEDAR ISLAND   NOT AVBL
JACKSONVILLE   CLOUDY    74  71  91 NE10      29.92R
PINEY ISLAND   CLOUDY   N/A N/A N/A E13       29.95
WILMINGTON     CLOUDY    73  72  96 NE8       29.93R


$$

NCZ011>013-027>030-043-044-078>080-089-090>093-098-010300-
COASTAL PLAIN

CITY           SKY/WX    TMP DP  RH WIND       PRES   REMARKS
AHOSKIE        MOCLDY    72  68  87 CALM      29.99R
CLINTON        CLOUDY    74  73  98 CALM      29.96R
ELIZABETHTOWN  CLOUDY    73  73  98 CALM      29.95R
GOLDSBORO      CLOUDY    73  73 100 N5        29.95R
GREENVILLE     PTCLDY    72  70  94 E6        29.99S
HAVELOCK       CLOUDY    74  71  91 E10       29.95R
KENANSVILLE    CLOUDY    72  70  93 CALM      29.96R
KINSTON        MOCLDY    73  72  94 NE3       29.97R
NEW BERN       PTCLDY    73  70  90 E6        29.96R
RICHLANDS      MOCLDY    72  72 100 NE7       29.94R
ROCKY MOUNT    PTCLDY    73  70  90 CALM      29.98R
WASHINGTON     CLOUDY    70  69  96 NE5       29.97R
WHITEVILLE     PTCLDY    73  71  94 N3        29.93R

$$

AMZ130-135-150-152-154-156-158-170-250-252-270-ANZ085-086-088-633-658-670-010300-
MARINE OBSERVATIONS

STATION/POSITION TIME  TEMP    WIND        PRES    WAVE   SWELL
                       AIR SEA DIR/SP/G            HT/PER HT/PER
                 (UTC) (F)     (DEG/KT/KT) (MB)    (FT/S) (FT/S)
CHESAPEAKE LIGHT 0200   70     100/  6/  7 1016.3
64 E VA BEACH    0150   71 66   70/  8/  8 1015.0    4/ 8   3/ 8
DUCK             0100      62              1014.1
2 E DUCK         0111      67                N/A     3/ 8
OREGON INLET     0100      72              1014.3
13E OREGON INLT  0100      70                N/A     4/ 8   3/ 8
HATTERAS CG      0100      76              1013.7
DIAMOND BUOY     0150   77 80  130/  2/  2 1014.4    3/ 8   3/ 8
CAPE LOOKOUT     0200   76      50/  9/ 10 1013.6
BEAUFORT LAB     0100      76              1012.6
30 SE NEW RVR IN NOT AVBL
27 SE WRIGHTSVLE 0108   77 76   80/  6/  8 1012.1
5 SE WRIGHTSVLE  0108   76 76   60/ 14/ 17 1012.4
225 S CAPE HAT   0150   77 77  150/ 12/ 14 1015.0    5/ 8   3/ 8
41 SE CHARLESTON 0150   76 77  310/  8/ 10 1012.6    3/ 8   3/ 8

$$



USA.gov is the U.S. government's official web portal to all federal, state and local government web resources and services.